Location: Rounton
(54.4000°N, 1.3500°W)
Time: 20:19:57
(UTC+00:00)

A-11 Canister half - Pass Details

Date: 07 December 2021
Orbit: 1516 x 1684 km, 47.2° (Epoch: 19 January)

Event Time Altitude Azimuth Distance (km) Brightness Sun altitude
Rises 08:07:59 0° 247° (WSW) 4,777 11.3 -1.3°
Reaches altitude 10° 08:11:06 10° 243° (WSW) 3,816 10.9 -0.9°
Maximum altitude 08:20:30 56° 170° (S) 1,907 10.0 0.1°
Drops below altitude 10° 08:30:12 10° 96° (E) 3,932 12.1 1.2°
Sets 08:33:28 0° 92° (E) 4,931 12.5 1.5°
